Retour au catalogue

SL-14 DEB

ActifPO
NORAD 17271·DEBRIS·🇷🇺 Russia

Lancé Dec 18, 1986 depuis Plesetsk Cosmodrome

Loading…

Prochains Passages (prochaines 24 heures)

TLE

FraisSource: Space-Track

Époque: Sep 14, 2026, 16:26 UTC

1 17271U 86101F   26257.68509340  .00000375  00000-0  23291-3 0  9996
2 17271  82.4080 144.7702 0024886 236.0655 142.8936 14.02646310 24457

Suivez SL-14 DEB en temps réel avec AllMySat

Download on the App Store